[[{"header":{"parameterUnit":"m.s-1","parameterCategory":1,"la1":30.2991,"la2":30.254,"lo1":-89.0895,"lo2":-89.0444,"dy":0.0017,"dx":0.0017,"nx":28,"ny":28,"refTime":"2025-09-08T03:00:00:Z","depth":0,"parameterNumber":2,"parameterNumberName":"U-component_of_WINDS"},"data":[0,0,0,0,0,0,0,0,0,0,0,0,0,0,0,0,0,0,0,0,0,0,0,0,0,0,0,0,0,0,0,0,0,0,0,0,0,0,0,0,0,0,0,0,0,0,0,0,0,0,0,0,0,0,0,0,0,0,-2.1119,-2.1119,0,-2.1116,-2.1116,-2.1116,-2.1055,-2.1054,-2.1052,-2.1051,-2.1049,-2.105,-2.1051,0,0,0,0,0,0,0,0,0,0,0,0,0,-2.1074,-2.1075,-2.1119,-2.1119,-2.1119,-2.1116,-2.1116,-2.1116,-2.1055,-2.1053,-2.1052,-2.105,-2.1048,-2.105,-2.1052,0,0,0,0,0,0,0,0,0,0,0,0,0,-2.1085,-2.1076,-2.1119,-2.1089,-2.1086,-2.1116,-2.1116,-2.1116,-2.1056,-2.1053,-2.1051,-2.1049,-2.1048,-2.105,-2.1052,-2.1112,0,0,-2.1058,-2.1059,0,0,0,0,0,0,0,0,-2.1084,-2.1086,-2.1093,-2.1091,-2.1088,-2.1083,-2.1099,-2.1114,-2.1056,-2.1067,-2.105,-2.1048,-2.1062,-2.1063,-2.1068,-2.1111,-2.1111,-2.1058,-2.106,-2.1061,-2.1061,0,0,0,0,0,0,0,-2.1084,-2.1086,-2.1118,-2.1093,-2.109,-2.1075,-2.1074,-2.1102,-2.1078,-2.1066,-2.1062,-2.1062,-2.106,-2.1066,-2.1067,-2.1111,-2.1058,-2.106,-2.1061,-2.1062,-2.1204,-2.1207,0,0,0,0,0,0,-2.1087,-2.1086,-2.1118,-2.1118,-2.108,-2.1078,-2.1077,-2.1087,-2.1077,-2.1074,-2.1064,-2.1059,-2.1063,-2.1065,-2.1067,-2.1137,-2.1061,-2.1063,-2.1064,-2.1202,-2.1205,-2.1207,0,0,0,0,0,0,-2.1086,-2.109,-2.1118,-2.1101,-2.1103,-2.1081,-2.1094,-2.1088,-2.1094,-2.1076,-2.1071,-2.1074,-2.1061,-2.1064,-2.1101,-2.1136,-2.1063,-2.1065,-2.1199,-2.1203,-2.1206,-2.1277,0,0,0,0,0,0,-2.1085,-2.109,-2.1113,-2.1102,-2.1104,-2.1152,-2.1096,-2.109,-2.1097,-2.1091,-2.1084,-2.1081,-2.106,-2.1098,-2.1103,-2.1137,-2.1067,-2.1196,-2.12,-2.1205,-2.1271,-2.1282,-2.1292,0,0,0,0,0,-2.1084,-2.1133,-2.1114,-2.1118,-2.1132,-2.1154,-2.1156,-2.1131,-2.11,-2.1123,-2.1111,-2.1081,-2.1131,-2.1102,-2.1107,-2.1143,-2.1193,-2.1199,-2.1205,-2.1267,-2.128,-2.1292,0,0,0,0,0,0,-2.115,-2.1131,-2.111,-2.1157,-2.1158,-2.1144,-2.1172,-2.1146,-2.1156,-2.1149,-2.1118,-2.1117,-2.1159,-2.1154,-2.1123,-2.12,-2.1157,-2.1164,-2.1202,-2.1215,-2.1225,-2.1226,-2.1069,0,0,0,0,0,-2.117,-2.1189,-2.1172,-2.1215,-2.1216,-2.1194,-2.1203,-2.1183,-2.1183,-2.1183,-2.1174,-2.1175,-2.1191,-2.1202,-2.1216,-2.1269,-2.1268,-2.1296,-2.1307,-2.1315,-2.1322,-2.1351,-2.1364,-2.1226,-2.1226,-2.1226,0,0,-2.1211,-2.1203,-2.1218,-2.1228,-2.1226,-2.1248,-2.1195,-2.122,-2.1236,-2.1187,-2.1222,-2.1215,-2.1214,-2.126,-2.1279,-2.1257,-2.136,-2.1323,-2.133,-2.1332,-2.1358,-2.1371,-2.1383,-2.123,-2.1229,-2.1228,0,0,-2.1299,-2.1294,-2.133,-2.1329,-2.1326,-2.1311,-2.132,-2.131,-2.1304,-2.1337,-2.1301,-2.132,-2.1347,-2.1348,-2.1353,-2.1439,-2.1412,-2.1444,-2.15,-2.1528,-2.1539,-2.1548,-2.158,-2.1592,-2.1451,-2.1451,-2.1451,0,-2.1351,-2.1382,-2.1352,-2.1379,-2.1385,-2.1341,-2.1377,-2.1378,-2.138,-2.1386,-2.136,-2.1394,-2.139,-2.1436,-2.1457,-2.1461,-2.1471,-2.1446,-2.1539,-2.1549,-2.1557,-2.1587,-2.1599,-2.1455,-2.1455,-2.1454,-2.1454,0,-2.1447,-2.1468,-2.1497,-2.15,-2.1509,-2.1541,-2.1517,-2.1529,-2.1508,-2.1496,-2.1531,-2.1524,-2.1536,-2.1545,-2.1525,-2.1588,-2.1574,-2.1545,-2.1501,-2.1575,-2.1603,-2.1614,-2.1461,-2.146,-2.1458,-2.1457,0,0,-2.1577,-2.1562,-2.1574,-2.1575,-2.1568,-2.1585,-2.1614,-2.1625,-2.1637,-2.1639,-2.1664,-2.1688,-2.166,-2.1665,-2.1645,-2.1669,-2.1739,-2.1636,-2.1636,-2.1657,-2.1809,-2.1833,-2.1847,-2.172,-2.1722,-2.1724,-2.181,0,-2.1663,-2.1712,-2.1686,-2.1739,-2.1759,-2.1717,-2.1743,-2.1742,-2.1731,-2.1746,-2.1733,-2.1752,-2.1713,-2.1716,-2.1738,-2.1726,-2.177,-2.1719,-2.1744,-2.1745,-2.1748,-2.1861,-2.1886,-2.1968,-2.182,-2.1822,-2.1823,0,-2.1769,-2.1776,-2.1831,-2.1821,-2.1828,-2.1852,-2.186,-2.1875,-2.1873,-2.1863,-2.1868,-2.1841,-2.187,-2.1825,-2.1864,-2.183,-2.1839,-2.1834,-2.1837,-2.184,-2.179,-2.1869,-2.1993,-2.2006,-2.184,-2.1839,-2.1838,0,-2.1861,-2.1883,-2.1919,-2.1921,-2.191,-2.1927,-2.1923,-2.1919,-2.1927,-2.1934,-2.1939,-2.1949,-2.1955,-2.1963,-2.194,-2.1909,-2.1983,-2.1936,-2.1977,-2.1978,-2.1996,-2.1996,-2.2125,-2.1999,-2.1999,-2.1998,-2.1998,0,-2.196,-2.1996,-2.196,-2.1983,-2.2022,-2.1991,-2.203,-2.2022,-2.2018,-2.2038,-2.2002,-2.2022,-2.1989,-2.2006,-2.1988,-2.2024,-2.2027,-2.202,-2.2016,-2.2025,-2.2026,-2.2031,-2.2026,-2.2002,-2.2001,-2.2,-2.2,0,-2.207,-2.2047,-2.2084,-2.2069,-2.2066,-2.2096,-2.2084,-2.2104,-2.2089,-2.2116,-2.212,-2.2098,-2.2116,-2.2093,-2.2109,-2.2097,-2.2146,-2.2132,-2.2147,-2.2144,-2.2186,-2.2183,-2.2326,-2.2343,-2.2204,-2.2205,-2.2206,0,-2.2135,-2.2162,-2.215,-2.216,-2.2158,-2.2176,-2.2184,-2.2154,-2.2164,-2.2163,-2.2184,-2.2198,-2.2209,-2.2239,-2.2225,-2.2237,-2.2224,-2.2272,-2.2225,-2.2234,-2.2226,-2.2226,-2.2229,-2.2283,-2.2285,-2.2286,-2.2287,0,-2.2255,-2.2242,-2.2254,-2.2263,-2.2273,-2.2279,-2.2282,-2.2293,-2.2261,-2.2274,-2.2292,-2.23,-2.2315,-2.2331,-2.2338,-2.2334,-2.2307,-2.2302,-2.2312,-2.2323,-2.2331,-2.2328,-2.2175,-2.2299,-2.2298,-2.2297,-2.2296,-2.2296,-2.2345,-2.2367,-2.2362,-2.2377,-2.2376,-2.2379,-2.2398,-2.2385,-2.2399,-2.2409,-2.239,-2.2413,-2.2409,-2.2417,-2.2416,-2.2434,-2.2413,-2.2427,-2.2431,-2.2436,-2.2443,-2.2326,-2.2435,-2.2434,-2.2434,-2.2434,-2.2433,0,-2.2464,-2.2458,-2.2472,-2.2477,-2.2489,-2.246,-2.2461,-2.2473,-2.2493,-2.2492,-2.2503,-2.2523,-2.2537,-2.2524,-2.2535,-2.2552,-2.2539,-2.2556,-2.2556,-2.2556,-2.2461,-2.2451,-2.2566,-2.2566,-2.2566,-2.2566,-2.2566,-2.2566,-2.2528,-2.2563,-2.255,-2.2584,-2.2578,-2.2599,-2.2603,-2.2606,-2.2605,-2.2629,-2.264,-2.2631,-2.2625,-2.2635,-2.2648,-2.2643,-2.265,-2.2672,-2.2663,-2.2575,-2.2562,-2.255,-2.2541,-2.2673,-2.2673,-2.2757,-2.2758,-2.2758]},{"header":{"parameterUnit":"m.s-1","parameterCategory":1,"la1":30.2991,"la2":30.254,"lo1":-89.0895,"lo2":-89.0444,"dy":0.0017,"dx":0.0017,"nx":28,"ny":28,"refTime":"2025-09-08T03:00:00:Z","depth":0,"parameterNumber":3,"parameterNumberName":"V-component_of_WINDS"},"data":[0,0,0,0,0,0,0,0,0,0,0,0,0,0,0,0,0,0,0,0,0,0,0,0,0,0,0,0,0,0,0,0,0,0,0,0,0,0,0,0,0,0,0,0,0,0,0,0,0,0,0,0,0,0,0,0,0,0,-5.2697,-5.2697,0,-5.273,-5.2731,-5.2731,-5.2671,-5.2669,-5.2667,-5.2665,-5.2695,-5.2697,-5.27,0,0,0,0,0,0,0,0,0,0,0,0,0,-5.2576,-5.2579,-5.2697,-5.2697,-5.2698,-5.273,-5.2731,-5.2731,-5.2671,-5.2669,-5.2666,-5.2664,-5.2694,-5.2697,-5.27,0,0,0,0,0,0,0,0,0,0,0,0,0,-5.2621,-5.258,-5.2697,-5.2672,-5.267,-5.273,-5.2731,-5.2731,-5.2672,-5.2669,-5.2666,-5.2663,-5.2693,-5.2697,-5.2701,-5.2785,0,0,-5.2713,-5.2715,0,0,0,0,0,0,0,0,-5.2619,-5.2625,-5.2675,-5.2673,-5.2671,-5.2693,-5.2699,-5.2749,-5.2672,-5.2671,-5.2665,-5.2661,-5.2696,-5.27,-5.2713,-5.2787,-5.2788,-5.2713,-5.2716,-5.2717,-5.2718,0,0,0,0,0,0,0,-5.2616,-5.2624,-5.271,-5.2676,-5.2674,-5.2657,-5.266,-5.2708,-5.27,-5.2671,-5.2666,-5.2671,-5.2695,-5.2709,-5.2713,-5.2789,-5.2713,-5.2717,-5.2719,-5.2721,-5.2934,-5.2937,0,0,0,0,0,0,-5.2616,-5.2622,-5.2709,-5.2711,-5.2637,-5.2662,-5.2665,-5.2689,-5.2699,-5.2698,-5.2674,-5.2669,-5.2704,-5.2708,-5.2714,-5.2814,-5.2717,-5.2721,-5.2723,-5.2931,-5.2935,-5.2938,0,0,0,0,0,0,-5.2614,-5.2625,-5.2707,-5.2665,-5.2674,-5.2667,-5.2695,-5.2691,-5.2706,-5.2702,-5.2699,-5.269,-5.2701,-5.2708,-5.2768,-5.2814,-5.2723,-5.2726,-5.2927,-5.2932,-5.2936,-5.3015,0,0,0,0,0,0,-5.2611,-5.2624,-5.2657,-5.2666,-5.2677,-5.2763,-5.2697,-5.2694,-5.2713,-5.2706,-5.2716,-5.2715,-5.27,-5.2763,-5.2772,-5.2818,-5.273,-5.2923,-5.2929,-5.2935,-5.3008,-5.3022,-5.3034,0,0,0,0,0,-5.2607,-5.2677,-5.2659,-5.267,-5.2718,-5.2766,-5.2772,-5.2754,-5.2717,-5.275,-5.2747,-5.2715,-5.2808,-5.2769,-5.278,-5.2827,-5.292,-5.2927,-5.2934,-5.3003,-5.3019,-5.3033,0,0,0,0,0,0,-5.2672,-5.2678,-5.2658,-5.2734,-5.275,-5.2756,-5.2796,-5.2772,-5.2797,-5.279,-5.2765,-5.2767,-5.2833,-5.2836,-5.2793,-5.291,-5.2857,-5.2867,-5.2906,-5.2921,-5.2934,-5.2932,-5.2733,0,0,0,0,0,-5.2695,-5.2735,-5.2737,-5.2803,-5.2813,-5.2803,-5.2823,-5.2808,-5.2823,-5.2829,-5.2831,-5.2846,-5.2878,-5.29,-5.2929,-5.3008,-5.3009,-5.3046,-5.3059,-5.3069,-5.3078,-5.312,-5.3136,-5.2962,-5.2962,-5.2962,0,0,-5.2743,-5.2751,-5.2778,-5.2817,-5.2828,-5.2868,-5.2809,-5.2854,-5.2883,-5.2835,-5.2893,-5.2895,-5.2909,-5.298,-5.3011,-5.2984,-5.3126,-5.3079,-5.3087,-5.309,-5.3129,-5.3146,-5.3161,-5.2967,-5.2966,-5.2966,0,0,-5.2852,-5.2862,-5.2919,-5.2932,-5.2949,-5.2943,-5.2956,-5.2966,-5.2966,-5.3024,-5.2989,-5.3022,-5.3079,-5.3091,-5.3104,-5.3218,-5.3189,-5.3228,-5.3295,-5.3336,-5.335,-5.3362,-5.3403,-5.3418,-5.3237,-5.3237,-5.3237,0,-5.2909,-5.297,-5.2951,-5.2999,-5.3017,-5.2977,-5.3034,-5.3046,-5.3072,-5.3085,-5.3055,-5.3125,-5.3132,-5.3205,-5.3233,-5.3245,-5.3259,-5.3227,-5.335,-5.3362,-5.3372,-5.3411,-5.3427,-5.3242,-5.3241,-5.3241,-5.324,0,-5.304,-5.3083,-5.3126,-5.3154,-5.3177,-5.3229,-5.3217,-5.3242,-5.3225,-5.3221,-5.328,-5.3287,-5.3317,-5.3333,-5.3316,-5.3404,-5.3387,-5.3354,-5.3301,-5.3394,-5.343,-5.3445,-5.3248,-5.3247,-5.3245,-5.3244,0,0,-5.319,-5.3208,-5.3224,-5.3237,-5.3254,-5.3285,-5.3335,-5.3367,-5.3389,-5.3408,-5.3448,-5.3497,-5.3467,-5.3483,-5.3466,-5.3503,-5.3593,-5.3465,-5.3465,-5.3489,-5.369,-5.3715,-5.3733,-5.3574,-5.3577,-5.3579,-5.3689,0,-5.3299,-5.3387,-5.3371,-5.3456,-5.3495,-5.3458,-5.3501,-5.3515,-5.3513,-5.3545,-5.3541,-5.3577,-5.3534,-5.3543,-5.3577,-5.3575,-5.3633,-5.3567,-5.3611,-5.3613,-5.3609,-5.3751,-5.3778,-5.3881,-5.3703,-5.3705,-5.3707,0,-5.3437,-5.3463,-5.3553,-5.3564,-5.358,-5.3619,-5.3647,-5.3678,-5.3693,-5.3689,-5.3707,-5.3684,-5.3732,-5.3679,-5.3745,-5.37,-5.3717,-5.3718,-5.3722,-5.3725,-5.3666,-5.3759,-5.3914,-5.393,-5.3729,-5.3727,-5.3725,0,-5.3538,-5.3596,-5.3657,-5.3669,-5.3683,-5.3712,-5.3719,-5.3731,-5.3751,-5.3775,-5.3788,-5.3816,-5.3832,-5.3854,-5.3839,-5.3801,-5.3907,-5.3852,-5.3904,-5.3905,-5.3929,-5.3927,-5.4089,-5.3939,-5.3939,-5.3939,-5.3939,0,-5.3661,-5.3717,-5.3703,-5.3741,-5.3802,-5.3783,-5.3844,-5.3846,-5.3858,-5.3894,-5.3863,-5.3898,-5.3876,-5.3908,-5.3896,-5.3953,-5.396,-5.3957,-5.3954,-5.3961,-5.3961,-5.3971,-5.3964,-5.3943,-5.3942,-5.3941,-5.3941,0,-5.3785,-5.3777,-5.3842,-5.3851,-5.3854,-5.39,-5.3906,-5.3941,-5.3937,-5.3983,-5.3993,-5.3985,-5.4022,-5.401,-5.4048,-5.404,-5.4113,-5.4099,-5.4108,-5.4105,-5.4158,-5.4154,-5.4332,-5.4355,-5.4191,-5.4192,-5.4193,0,-5.3864,-5.3907,-5.3921,-5.3944,-5.3954,-5.3992,-5.4013,-5.3995,-5.4018,-5.4039,-5.407,-5.4105,-5.4131,-5.4191,-5.4189,-5.4218,-5.4205,-5.4266,-5.4209,-5.4215,-5.4207,-5.4205,-5.4209,-5.4277,-5.4279,-5.4281,-5.4282,0,-5.4005,-5.4,-5.4032,-5.4064,-5.409,-5.4113,-5.4134,-5.4154,-5.4137,-5.4164,-5.4203,-5.4223,-5.4264,-5.4298,-5.4325,-5.433,-5.4304,-5.43,-5.4314,-5.4321,-5.4325,-5.4324,-5.4139,-5.4296,-5.4294,-5.4293,-5.4293,-5.4292,-5.4109,-5.4146,-5.4162,-5.4199,-5.4213,-5.4233,-5.4266,-5.4267,-5.4299,-5.4332,-5.4319,-5.4363,-5.4376,-5.4409,-5.4419,-5.4452,-5.4428,-5.4448,-5.4453,-5.4458,-5.4466,-5.432,-5.4457,-5.4456,-5.4456,-5.4455,-5.4455,0,-5.4249,-5.4258,-5.4293,-5.4323,-5.4352,-5.4326,-5.4347,-5.4373,-5.4413,-5.4428,-5.4456,-5.4499,-5.4533,-5.4533,-5.4563,-5.459,-5.4579,-5.4599,-5.4597,-5.4598,-5.4485,-5.447,-5.4607,-5.4607,-5.4607,-5.4607,-5.4607,-5.4607,-5.4326,-5.4387,-5.4383,-5.445,-5.4458,-5.4502,-5.4517,-5.4534,-5.4547,-5.4598,-5.4626,-5.4627,-5.4636,-5.4667,-5.4696,-5.4695,-5.4708,-5.4733,-5.4727,-5.4621,-5.4606,-5.4592,-5.4578,-5.4736,-5.4736,-5.4838,-5.4839,-5.484]}]]